| time (UTC) | temp F | wind direction | speed MPH | gust MPH | rain 1hr in | rain 24hr in | rain mn in | humidity % | barometer mb |
| 20260505095008 | 44 | 254 | 0.0 | 0.0 | 0.00 | 0.00 | 0.00 | 76 | 1022.0 |
| 20260505094513 | 44 | 254 | 0.0 | 0.0 | 0.00 | 0.00 | 0.00 | 76 | 1021.9 |
| 20260505094008 | 45 | 254 | 0.0 | 0.0 | 0.00 | 0.00 | 0.00 | 75 | 1021.9 |
| 20260505093507 | 45 | 254 | 0.0 | 0.0 | 0.00 | 0.00 | 0.00 | 74 | 1021.8 |
| 20260505093016 | 45 | 254 | 0.0 | 0.0 | 0.00 | 0.00 | 0.00 | 73 | 1021.7 |
| 20260505092511 | 46 | 254 | 0.0 | 0.0 | 0.00 | 0.00 | 0.00 | 73 | 1021.7 |
| 20260505092009 | 46 | 254 | 0.0 | 2.0 | 0.00 | 0.00 | 0.00 | 73 | 1021.8 |
| 20260505091527 | 46 | 254 | 0.0 | 2.0 | 0.00 | 0.00 | 0.00 | 72 | 1021.7 |
| 20260505091012 | 47 | 254 | 1.0 | 2.0 | 0.00 | 0.00 | 0.00 | 72 | 1021.7 |
| 20260505090509 | 47 | 243 | 0.0 | 3.0 | 0.00 | 0.00 | 0.00 | 71 | 1021.8 |
| 20260505090038 | 47 | 249 | 1.0 | 3.0 | 0.00 | 0.00 | 0.00 | 71 | 1021.7 |
| 20260505085506 | 47 | 245 | 1.0 | 4.0 | 0.00 | 0.00 | 0.00 | 71 | 1021.7 |
| 20260505085004 | 47 | 243 | 1.0 | 4.0 | 0.00 | 0.00 | 0.00 | 70 | 1021.7 |
| 20260505084512 | 48 | 231 | 0.0 | 0.0 | 0.00 | 0.00 | 0.00 | 70 | 1021.7 |
| 20260505084004 | 48 | 231 | 0.0 | 0.0 | 0.00 | 0.00 | 0.00 | 70 | 1021.6 |
| 20260505083507 | 48 | 231 | 0.0 | 0.0 | 0.00 | 0.00 | 0.00 | 70 | 1021.4 |
| 20260505083016 | 48 | 235 | 0.0 | 0.0 | 0.00 | 0.00 | 0.00 | 69 | 1021.3 |
| 20260505082507 | 48 | 235 | 0.0 | 0.0 | 0.00 | 0.00 | 0.00 | 69 | 1021.2 |
| 20260505082007 | 48 | 235 | 0.0 | 1.0 | 0.00 | 0.00 | 0.00 | 69 | 1021.0 |
| 20260505081518 | 48 | 229 | 0.0 | 1.0 | 0.00 | 0.00 | 0.00 | 69 | 1021.0 |
| 20260505081007 | 48 | 229 | 0.0 | 0.0 | 0.00 | 0.00 | 0.00 | 69 | 1020.9 |
| 20260505080507 | 48 | 229 | 0.0 | 0.0 | 0.00 | 0.00 | 0.00 | 69 | 1020.8 |
| 20260505080023 | 48 | 229 | 0.0 | 0.0 | 0.00 | 0.00 | 0.00 | 69 | 1020.8 |
| 20260505075512 | 49 | 229 | 0.0 | 1.0 | 0.00 | 0.00 | 0.00 | 68 | 1020.7 |
| 20260505075011 | 49 | 231 | 0.0 | 3.0 | 0.00 | 0.00 | 0.00 | 68 | 1020.7 |
| 20260505074527 | 49 | 229 | 0.0 | 3.0 | 0.00 | 0.00 | 0.00 | 68 | 1020.6 |
| 20260505074004 | 49 | 225 | 0.0 | 3.0 | 0.00 | 0.00 | 0.00 | 68 | 1020.5 |
| 20260505073504 | 49 | 180 | 0.0 | 0.0 | 0.00 | 0.00 | 0.00 | 68 | 1020.5 |
| 20260505073024 | 50 | 193 | 0.0 | 2.0 | 0.00 | 0.00 | 0.00 | 67 | 1020.5 |
| 20260505072511 | 50 | 193 | 0.0 | 2.0 | 0.00 | 0.00 | 0.00 | 67 | 1020.4 |
| 20260505072009 | 50 | 225 | 0.0 | 3.0 | 0.00 | 0.00 | 0.00 | 67 | 1020.4 |
| 20260505071518 | 51 | 235 | 0.0 | 3.0 | 0.00 | 0.00 | 0.00 | 66 | 1020.2 |
| 20260505071008 | 51 | 245 | 0.0 | 4.0 | 0.00 | 0.00 | 0.00 | 65 | 1020.2 |
| 20260505070512 | 51 | 239 | 1.0 | 4.0 | 0.00 | 0.00 | 0.00 | 65 | 1020.3 |
| 20260505070023 | 52 | 211 | 0.0 | 5.0 | 0.00 | 0.00 | 0.00 | 65 | 1020.3 |
| 20260505065507 | 52 | 185 | 2.0 | 5.0 | 0.00 | 0.00 | 0.00 | 64 | 1020.2 |
| 20260505065008 | 52 | 216 | 1.0 | 5.0 | 0.00 | 0.00 | 0.00 | 64 | 1020.2 |
| 20260505064538 | 52 | 208 | 3.0 | 5.0 | 0.00 | 0.00 | 0.00 | 63 | 1020.1 |
| 20260505064009 | 53 | 237 | 0.0 | 4.0 | 0.00 | 0.00 | 0.00 | 65 | 1020.2 |
| 20260505063511 | 53 | 225 | 1.0 | 4.0 | 0.00 | 0.00 | 0.00 | 65 | 1020.1 |
| 20260505063026 | 53 | 197 | 0.0 | 5.0 | 0.00 | 0.00 | 0.00 | 65 | 1020.0 |
| 20260505062510 | 53 | 239 | 2.0 | 7.0 | 0.00 | 0.00 | 0.00 | 64 | 1019.6 |
| 20260505062011 | 53 | 192 | 4.0 | 8.0 | 0.00 | 0.00 | 0.00 | 64 | 1019.5 |
| 20260505061529 | 53 | 258 | 3.0 | 8.0 | 0.00 | 0.00 | 0.00 | 64 | 1019.5 |
| 20260505061008 | 53 | 250 | 4.0 | 12.0 | 0.00 | 0.00 | 0.00 | 63 | 1019.4 |
| 20260505060508 | 54 | 256 | 3.0 | 12.0 | 0.00 | 0.00 | 0.00 | 62 | 1019.5 |
| 20260505060019 | 54 | 224 | 3.0 | 9.0 | 0.00 | 0.00 | 0.00 | 63 | 1019.5 |
| 20260505055512 | 54 | 238 | 4.0 | 7.0 | 0.00 | 0.00 | 0.00 | 62 | 1019.5 |
| 20260505055010 | 54 | 249 | 3.0 | 9.0 | 0.00 | 0.00 | 0.00 | 60 | 1019.4 |
| 20260505054542 | 54 | 256 | 3.0 | 9.0 | 0.00 | 0.00 | 0.00 | 62 | 1019.4 |
| 20260505054014 | 54 | 244 | 2.0 | 5.0 | 0.00 | 0.00 | 0.00 | 62 | 1019.3 |
| 20260505053509 | 54 | 220 | 1.0 | 5.0 | 0.00 | 0.00 | 0.00 | 64 | 1019.3 |
| 20260505053031 | 54 | 164 | 3.0 | 7.0 | 0.00 | 0.00 | 0.00 | 63 | 1019.2 |
| 20260505052510 | 54 | 134 | 3.0 | 7.0 | 0.00 | 0.00 | 0.00 | 62 | 1019.2 |
| 20260505052011 | 55 | 220 | 2.0 | 6.0 | 0.00 | 0.00 | 0.00 | 61 | 1019.1 |
| 20260505051528 | 55 | 180 | 2.0 | 6.0 | 0.00 | 0.00 | 0.00 | 62 | 1019.1 |
| 20260505051014 | 55 | 222 | 2.0 | 7.0 | 0.00 | 0.00 | 0.00 | 61 | 1019.1 |
| 20260505050507 | 55 | 168 | 3.0 | 7.0 | 0.00 | 0.00 | 0.00 | 59 | 1018.9 |
| 20260505041511 | 56 | 253 | 2.0 | 6.0 | 0.00 | 0.00 | 0.00 | 57 | 1018.3 |
| 20260505041004 | 55 | 245 | 1.0 | 6.0 | 0.00 | 0.00 | 0.00 | 58 | 1018.2 |
| 20260505040506 | 55 | 207 | 2.0 | 5.0 | 0.00 | 0.00 | 0.00 | 57 | 1018.2 |
| 20260505040008 | 55 | 180 | 2.0 | 5.0 | 0.00 | 0.00 | 0.00 | 58 | 1018.2 |
| 20260505035504 | 55 | 265 | 2.0 | 5.0 | 0.00 | 0.00 | 0.00 | 57 | 1018.2 |
| 20260505035003 | 55 | 234 | 2.0 | 5.0 | 0.00 | 0.00 | 0.00 | 58 | 1018.2 |
| 20260505034511 | 55 | 258 | 3.0 | 9.0 | 0.00 | 0.00 | 0.00 | 57 | 1018.2 |
| 20260505034009 | 55 | 260 | 5.0 | 10.0 | 0.00 | 0.00 | 0.00 | 55 | 1018.1 |
| 20260505033504 | 55 | 245 | 3.0 | 10.0 | 0.00 | 0.00 | 0.00 | 58 | 1018.1 |
| 20260505033003 | 55 | 247 | 5.0 | 10.0 | 0.00 | 0.00 | 0.00 | 58 | 1018.1 |
| 20260505032503 | 55 | 248 | 4.0 | 10.0 | 0.00 | 0.00 | 0.00 | 58 | 1018.2 |
| 20260505032003 | 55 | 263 | 4.0 | 10.0 | 0.00 | 0.00 | 0.00 | 57 | 1018.2 |
| 20260505031524 | 55 | 252 | 2.0 | 10.0 | 0.00 | 0.00 | 0.00 | 58 | 1018.2 |
| 20260505031003 | 55 | 287 | 4.0 | 10.0 | 0.00 | 0.00 | 0.00 | 59 | 1018.2 |
| 20260505030504 | 55 | 255 | 5.0 | 9.0 | 0.00 | 0.00 | 0.00 | 58 | 1018.1 |
| 20260505030009 | 55 | 235 | 4.0 | 9.0 | 0.00 | 0.00 | 0.00 | 56 | 1018.2 |
| 20260505025504 | 55 | 243 | 4.0 | 9.0 | 0.00 | 0.00 | 0.00 | 56 | 1018.2 |
| 20260505025004 | 55 | 262 | 4.0 | 7.0 | 0.00 | 0.00 | 0.00 | 58 | 1018.2 |
| 20260505024517 | 55 | 292 | 0.0 | 6.0 | 0.00 | 0.00 | 0.00 | 57 | 1018.2 |
| 20260505024008 | 55 | 239 | 2.0 | 6.0 | 0.00 | 0.00 | 0.00 | 58 | 1018.2 |
| 20260505023504 | 55 | 197 | 1.0 | 7.0 | 0.00 | 0.00 | 0.00 | 56 | 1018.2 |
| 20260505023012 | 55 | 279 | 2.0 | 7.0 | 0.00 | 0.00 | 0.00 | 59 | 1018.2 |
| 20260505022504 | 55 | 222 | 2.0 | 7.0 | 0.00 | 0.00 | 0.00 | 57 | 1018.3 |
| 20260505022007 | 55 | 256 | 1.0 | 7.0 | 0.00 | 0.00 | 0.00 | 59 | 1018.3 |
| 20260505021504 | 55 | 211 | 1.0 | 7.0 | 0.00 | 0.00 | 0.00 | 57 | 1018.3 |
| 20260505021007 | 55 | 232 | 1.0 | 7.0 | 0.00 | 0.00 | 0.00 | 55 | 1018.3 |
| 20260505020504 | 55 | 264 | 1.0 | 6.0 | 0.00 | 0.00 | 0.00 | 58 | 1018.3 |
| 20260505020024 | 55 | 149 | 3.0 | 6.0 | 0.00 | 0.00 | 0.00 | 58 | 1018.4 |
| 20260505015504 | 54 | 218 | 2.0 | 7.0 | 0.00 | 0.00 | 0.00 | 59 | 1018.5 |
| 20260505015007 | 54 | 243 | 2.0 | 8.0 | 0.00 | 0.00 | 0.00 | 60 | 1018.7 |
| 20260505014509 | 54 | 216 | 4.0 | 8.0 | 0.00 | 0.00 | 0.00 | 57 | 1018.8 |
| 20260505014008 | 54 | 246 | 3.0 | 9.0 | 0.00 | 0.00 | 0.00 | 58 | 1018.8 |
| 20260505013509 | 54 | 293 | 3.0 | 9.0 | 0.00 | 0.00 | 0.00 | 54 | 1018.8 |
| 20260505013010 | 54 | 216 | 3.0 | 8.0 | 0.00 | 0.00 | 0.00 | 56 | 1018.8 |
| 20260505012505 | 54 | 233 | 3.0 | 7.0 | 0.00 | 0.00 | 0.00 | 54 | 1018.8 |
| 20260505012006 | 54 | 346 | 1.0 | 7.0 | 0.00 | 0.00 | 0.00 | 56 | 1018.8 |
| 20260505011510 | 54 | 246 | 2.0 | 6.0 | 0.00 | 0.00 | 0.00 | 58 | 1018.7 |
| 20260505011005 | 53 | 235 | 1.0 | 7.0 | 0.00 | 0.00 | 0.00 | 57 | 1018.7 |
| 20260505010508 | 53 | 239 | 2.0 | 7.0 | 0.00 | 0.00 | 0.00 | 57 | 1018.7 |
| 20260505010007 | 53 | 253 | 3.0 | 9.0 | 0.00 | 0.00 | 0.00 | 57 | 1018.6 |
| 20260505005503 | 53 | 268 | 3.0 | 9.0 | 0.00 | 0.00 | 0.00 | 59 | 1018.6 |
| 20260505005007 | 53 | 267 | 5.0 | 8.0 | 0.00 | 0.00 | 0.00 | 57 | 1018.6 |
| 20260505004526 | 53 | 268 | 2.0 | 9.0 | 0.00 | 0.00 | 0.00 | 59 | 1018.6 |
| 20260505004005 | 53 | 256 | 2.0 | 9.0 | 0.00 | 0.00 | 0.00 | 59 | 1018.6 |
| 20260505003509 | 53 | 263 | 2.0 | 4.0 | 0.00 | 0.00 | 0.00 | 57 | 1018.5 |
| 20260505003015 | 53 | 244 | 0.0 | 4.0 | 0.00 | 0.00 | 0.00 | 59 | 1018.5 |
| 20260505002514 | 53 | 331 | 1.0 | 3.0 | 0.00 | 0.00 | 0.00 | 58 | 1018.5 |
| 20260505002012 | 52 | 57 | 1.0 | 3.0 | 0.00 | 0.00 | 0.00 | 61 | 1018.3 |
| 20260505001514 | 51 | 224 | 1.0 | 8.0 | 0.00 | 0.00 | 0.00 | 62 | 1018.3 |
| 20260505001010 | 51 | 15 | 4.0 | 10.0 | 0.00 | 0.00 | 0.00 | 60 | 1018.1 |
| 20260505000508 | 51 | 29 | 6.0 | 10.0 | 0.00 | 0.00 | 0.00 | 61 | 1018.0 |
| 20260505000033 | 52 | 67 | 6.0 | 10.0 | 0.00 | 0.00 | 0.00 | 64 | 1018.0 |
| 20260504235508 | 51 | 114 | 4.0 | 9.0 | 0.00 | 0.00 | 0.00 | 65 | 1018.0 |
| 20260504235006 | 51 | 143 | 3.0 | 7.0 | 0.00 | 0.00 | 0.00 | 61 | 1018.0 |
| 20260504234508 | 50 | 246 | 2.0 | 7.0 | 0.00 | 0.00 | 0.00 | 62 | 1017.9 |
| 20260504234006 | 50 | 153 | 1.0 | 5.0 | 0.00 | 0.00 | 0.00 | 62 | 1017.9 |
| 20260504233508 | 50 | 233 | 2.0 | 6.0 | 0.00 | 0.00 | 0.00 | 64 | 1017.8 |
| 20260504233012 | 50 | 241 | 3.0 | 7.0 | 0.00 | 0.00 | 0.00 | 63 | 1017.7 |
| 20260504232507 | 49 | 200 | 2.0 | 7.0 | 0.00 | 0.00 | 0.00 | 63 | 1017.8 |
| 20260504232008 | 49 | 237 | 2.0 | 4.0 | 0.00 | 0.00 | 0.00 | 65 | 1017.9 |
| 20260504231517 | 49 | 243 | 2.0 | 4.0 | 0.00 | 0.00 | 0.00 | 64 | 1017.9 |
| 20260504231007 | 49 | 249 | 2.0 | 4.0 | 0.00 | 0.00 | 0.00 | 64 | 1017.9 |
| 20260504230505 | 48 | 241 | 1.0 | 5.0 | 0.00 | 0.00 | 0.00 | 64 | 1017.8 |
| 20260504230019 | 49 | 252 | 2.0 | 5.0 | 0.00 | 0.00 | 0.00 | 65 | 1017.8 |
| 20260504225507 | 49 | 256 | 1.0 | 4.0 | 0.00 | 0.00 | 0.00 | 64 | 1017.7 |
| 20260504225010 | 49 | 201 | 0.0 | 3.0 | 0.00 | 0.01 | 0.00 | 64 | 1017.9 |
| 20260504224516 | 49 | 164 | 0.0 | 3.0 | 0.00 | 0.01 | 0.00 | 65 | 1017.8 |
| 20260504224011 | 49 | 168 | 1.0 | 3.0 | 0.00 | 0.01 | 0.00 | 66 | 1017.9 |
| 20260504223508 | 48 | 168 | 0.0 | 3.0 | 0.00 | 0.01 | 0.00 | 66 | 1017.9 |
| 20260504223020 | 47 | 185 | 0.0 | 4.0 | 0.00 | 0.01 | 0.00 | 66 | 1017.7 |
| 20260504222507 | 47 | 246 | 1.0 | 5.0 | 0.00 | 0.01 | 0.00 | 67 | 1017.6 |
| 20260504222007 | 47 | 262 | 2.0 | 7.0 | 0.00 | 0.01 | 0.00 | 67 | 1017.5 |
| 20260504221517 | 46 | 244 | 2.0 | 8.0 | 0.00 | 0.01 | 0.00 | 68 | 1017.4 |
| 20260504221009 | 46 | 250 | 4.0 | 10.0 | 0.00 | 0.01 | 0.00 | 68 | 1017.3 |
| 20260504220507 | 46 | 256 | 4.0 | 10.0 | 0.00 | 0.01 | 0.00 | 68 | 1017.2 |
| 20260504220020 | 46 | 204 | 3.0 | 9.0 | 0.00 | 0.03 | 0.00 | 69 | 1017.1 |
| 20260504215509 | 46 | 229 | 1.0 | 10.0 | 0.00 | 0.03 | 0.00 | 70 | 1017.0 |
| 20260504215009 | 45 | 271 | 3.0 | 11.0 | 0.00 | 0.03 | 0.00 | 71 | 1016.8 |
| 20260504214522 | 45 | 267 | 7.0 | 11.0 | 0.00 | 0.03 | 0.00 | 71 | 1016.7 |
| 20260504214009 | 45 | 264 | 7.0 | 14.0 | 0.00 | 0.03 | 0.00 | 71 | 1016.6 |
| 20260504213506 | 45 | 260 | 9.0 | 14.0 | 0.00 | 0.03 | 0.00 | 71 | 1016.4 |
| 20260504213023 | 45 | 266 | 9.0 | 12.0 | 0.00 | 0.03 | 0.00 | 71 | 1016.4 |
| 20260504212507 | 45 | 266 | 8.0 | 14.0 | 0.00 | 0.03 | 0.00 | 71 | 1016.3 |
| 20260504212008 | 45 | 266 | 10.0 | 16.0 | 0.00 | 0.03 | 0.00 | 71 | 1016.2 |
| 20260504211520 | 45 | 271 | 12.0 | 16.0 | 0.00 | 0.03 | 0.00 | 71 | 1016.2 |
| 20260504211006 | 45 | 267 | 10.0 | 14.0 | 0.00 | 0.03 | 0.00 | 71 | 1016.4 |
| 20260504210506 | 45 | 267 | 8.0 | 14.0 | 0.00 | 0.03 | 0.00 | 71 | 1016.4 |
| 20260504210022 | 45 | 276 | 9.0 | 14.0 | 0.00 | 0.03 | 0.00 | 71 | 1016.4 |
| 20260504205506 | 45 | 270 | 9.0 | 13.0 | 0.00 | 0.03 | 0.00 | 71 | 1016.2 |
| 20260504205010 | 45 | 263 | 8.0 | 16.0 | 0.00 | 0.03 | 0.00 | 72 | 1016.1 |
| 20260504204521 | 45 | 268 | 10.0 | 16.0 | 0.00 | 0.03 | 0.00 | 72 | 1016.1 |
| 20260504204009 | 44 | 284 | 4.0 | 8.0 | 0.00 | 0.03 | 0.00 | 73 | 1016.3 |
| 20260504203514 | 45 | 260 | 0.0 | 3.0 | 0.00 | 0.03 | 0.00 | 74 | 1016.3 |
| 20260504203027 | 45 | 247 | 0.0 | 7.0 | 0.00 | 0.03 | 0.00 | 73 | 1016.4 |
| 20260504202513 | 45 | 240 | 0.0 | 8.0 | 0.00 | 0.03 | 0.00 | 74 | 1016.2 |
| 20260504202007 | 45 | 310 | 4.0 | 9.0 | 0.00 | 0.03 | 0.00 | 74 | 1016.3 |
| 20260504201521 | 45 | 266 | 2.0 | 11.0 | 0.00 | 0.03 | 0.00 | 73 | 1016.0 |
| 20260504201008 | 45 | 278 | 7.0 | 16.0 | 0.00 | 0.03 | 0.00 | 73 | 1015.8 |
| 20260504200508 | 45 | 270 | 8.0 | 16.0 | 0.00 | 0.03 | 0.00 | 73 | 1015.8 |
| 20260504200022 | 45 | 254 | 6.0 | 13.0 | 0.00 | 0.03 | 0.00 | 73 | 1015.7 |
| 20260504195508 | 45 | 258 | 7.0 | 13.0 | 0.00 | 0.03 | 0.00 | 73 | 1015.7 |
| 20260504195006 | 45 | 274 | 7.0 | 17.0 | 0.00 | 0.03 | 0.00 | 73 | 1015.7 |
| 20260504194518 | 46 | 266 | 9.0 | 17.0 | 0.00 | 0.03 | 0.00 | 73 | 1015.8 |
| 20260504194009 | 46 | 252 | 10.0 | 17.0 | 0.00 | 0.03 | 0.00 | 72 | 1015.7 |
| 20260504193502 | 46 | 254 | 11.0 | 19.0 | 0.00 | 0.03 | 0.00 | 72 | 1015.7 |
| 20260504193004 | 46 | 271 | 11.0 | 19.0 | 0.00 | 0.03 | 0.00 | 72 | 1015.7 |
| 20260504192505 | 46 | 291 | 8.0 | 13.0 | 0.00 | 0.03 | 0.00 | 73 | 1015.6 |
| 20260504192003 | 45 | 258 | 6.0 | 13.0 | 0.00 | 0.03 | 0.00 | 73 | 1015.7 |
| 20260504191510 | 45 | 272 | 7.0 | 16.0 | 0.00 | 0.03 | 0.00 | 74 | 1015.7 |
| 20260504191008 | 45 | 260 | 8.0 | 16.0 | 0.00 | 0.03 | 0.00 | 73 | 1015.7 |
| 20260504190511 | 45 | 276 | 5.0 | 16.0 | 0.00 | 0.03 | 0.00 | 74 | 1015.6 |
| 20260504190011 | 45 | 256 | 6.0 | 18.0 | 0.00 | 0.03 | 0.00 | 74 | 1015.7 |
| 20260504185508 | 46 | 251 | 9.0 | 18.0 | 0.00 | 0.03 | 0.00 | 73 | 1015.5 |
| 20260504185004 | 45 | 287 | 8.0 | 18.0 | 0.00 | 0.03 | 0.00 | 74 | 1015.2 |
| 20260504184518 | 46 | 256 | 12.0 | 18.0 | 0.00 | 0.03 | 0.00 | 74 | 1015.1 |
| 20260504184011 | 46 | 278 | 10.0 | 17.0 | 0.00 | 0.03 | 0.00 | 73 | 1014.9 |
| 20260504183510 | 46 | 267 | 10.0 | 17.0 | 0.00 | 0.03 | 0.00 | 73 | 1015.0 |
| 20260504183020 | 46 | 268 | 11.0 | 17.0 | 0.00 | 0.03 | 0.00 | 72 | 1014.9 |
| 20260504182510 | 46 | 278 | 10.0 | 16.0 | 0.00 | 0.03 | 0.00 | 72 | 1015.1 |
| 20260504182011 | 46 | 286 | 9.0 | 16.0 | 0.00 | 0.03 | 0.00 | 71 | 1015.1 |
| 20260504181504 | 46 | 276 | 12.0 | 16.0 | 0.00 | 0.03 | 0.00 | 70 | 1015.0 |
| 20260504181004 | 46 | 277 | 10.0 | 16.0 | 0.00 | 0.03 | 0.00 | 70 | 1015.1 |
| 20260504180503 | 46 | 278 | 10.0 | 23.0 | 0.00 | 0.03 | 0.00 | 70 | 1015.0 |
| 20260504180010 | 46 | 269 | 9.0 | 23.0 | 0.00 | 0.03 | 0.00 | 69 | 1015.0 |
| 20260504175512 | 46 | 262 | 10.0 | 19.0 | 0.00 | 0.03 | 0.00 | 70 | 1014.8 |
| 20260504175005 | 46 | 266 | 7.0 | 11.0 | 0.00 | 0.03 | 0.00 | 70 | 1014.9 |
| 20260504174514 | 46 | 274 | 7.0 | 13.0 | 0.00 | 0.03 | 0.00 | 70 | 1014.9 |
| 20260504174005 | 46 | 265 | 6.0 | 13.0 | 0.00 | 0.03 | 0.00 | 70 | 1014.6 |
| 20260504173509 | 46 | 274 | 7.0 | 12.0 | 0.00 | 0.03 | 0.00 | 71 | 1014.7 |
| 20260504173019 | 46 | 278 | 3.0 | 8.0 | 0.00 | 0.03 | 0.00 | 71 | 1014.6 |
| 20260504172507 | 46 | 272 | 4.0 | 9.0 | 0.00 | 0.03 | 0.00 | 71 | 1014.5 |
| 20260504172009 | 46 | 276 | 4.0 | 11.0 | 0.00 | 0.03 | 0.00 | 70 | 1014.5 |
| 20260504171524 | 46 | 314 | 3.0 | 13.0 | 0.00 | 0.03 | 0.00 | 71 | 1014.4 |
| 20260504171011 | 46 | 266 | 8.0 | 13.0 | 0.00 | 0.03 | 0.00 | 70 | 1014.5 |
| 20260504170508 | 46 | 282 | 8.0 | 12.0 | 0.00 | 0.03 | 0.00 | 71 | 1014.5 |
| 20260504151007 | 47 | 286 | 16.0 | 25.0 | 0.00 | 0.13 | 0.00 | 71 | 1013.3 |
| 20260504150511 | 47 | 232 | 15.0 | 37.0 | 0.00 | 0.14 | 0.00 | 71 | 1013.3 |
| 20260504141008 | 47 | 297 | 15.0 | 25.0 | 0.00 | 0.18 | 0.00 | 68 | 1013.8 |
| 20260504140508 | 47 | 274 | 15.0 | 25.0 | 0.00 | 0.18 | 0.00 | 68 | 1013.9 |
| 20260504130508 | 47 | 291 | 11.0 | 21.0 | 0.00 | 0.25 | 0.19 | 66 | 1014.6 |
| 20260504110506 | 47 | 264 | 7.0 | 18.0 | 0.00 | 0.31 | 0.19 | 67 | 1015.5 |
| 20260504100503 | 46 | 264 | 13.0 | 20.0 | 0.00 | 0.33 | 0.19 | 67 | 1015.2 |